[[{"header":{"parameterUnit":"m.s-1","parameterCategory":1,"la1":30.2991,"la2":30.254,"lo1":-89.0895,"lo2":-89.0444,"dy":0.0017,"dx":0.0017,"nx":28,"ny":28,"refTime":"2023-11-21T09:00:00:Z","depth":0,"parameterNumber":2,"parameterNumberName":"U-component_of_WINDS"},"data":[0,0,0,0,0,0,0,0,0,0,0,0,0,0,0,0,0,0,0,0,0,0,0,0,0,0,0,0,0,0,0,0,0,0,0,0,0,0,0,0,0,0,0,0,0,0,0,0,0,0,0,0,0,0,0,0,0,0,0.1156,0.1156,0,0.1117,0.1116,0.1116,0.1111,0.1111,0.1112,0.1112,0.1071,0.107,0.1068,0,0,0,0,0,0,0,0,0,0,0,0,0,0.1229,0.1228,0.1156,0.1156,0.1155,0.1117,0.1116,0.1116,0.1111,0.1112,0.1112,0.1112,0.1072,0.107,0.1068,0,0,0,0,0,0,0,0,0,0,0,0,0,0.1194,0.1227,0.1156,0.1148,0.1147,0.1117,0.1116,0.1115,0.1111,0.1112,0.1112,0.1113,0.1072,0.107,0.1068,0.1043,0,0,0.1061,0.106,0,0,0,0,0,0,0,0,0.1196,0.1191,0.115,0.1149,0.1148,0.1119,0.1127,0.1091,0.1111,0.1125,0.1112,0.1113,0.1087,0.1083,0.1075,0.1041,0.1039,0.1061,0.106,0.1059,0.1058,0,0,0,0,0,0,0,0.1199,0.1193,0.1141,0.1149,0.1148,0.1147,0.1143,0.112,0.1103,0.1124,0.1123,0.1119,0.1086,0.1077,0.1074,0.1038,0.1061,0.1059,0.1058,0.1057,0.0983,0.0982,0,0,0,0,0,0,0.1202,0.1195,0.1142,0.1139,0.1174,0.1145,0.114,0.1128,0.1103,0.11,0.1118,0.1118,0.108,0.1076,0.1072,0.1041,0.1059,0.1057,0.1056,0.0984,0.0983,0.0982,0,0,0,0,0,0,0.1204,0.1198,0.1143,0.1167,0.116,0.1143,0.1129,0.1127,0.1117,0.1099,0.1096,0.1111,0.1081,0.1075,0.105,0.104,0.1056,0.1054,0.0984,0.0983,0.0982,0.0979,0,0,0,0,0,0,0.1206,0.1198,0.1188,0.1167,0.1159,0.1122,0.1129,0.1126,0.1114,0.1114,0.1092,0.1089,0.1081,0.1054,0.1048,0.1037,0.1052,0.0985,0.0984,0.0983,0.098,0.0978,0.0977,0,0,0,0,0,0.1209,0.1188,0.1188,0.1181,0.1146,0.1121,0.1117,0.1107,0.1113,0.1103,0.1091,0.109,0.1042,0.1051,0.1045,0.1033,0.0986,0.0984,0.0983,0.0981,0.0979,0.0977,0,0,0,0,0,0,0.1208,0.1185,0.1184,0.1157,0.1141,0.1121,0.1107,0.1105,0.1088,0.1088,0.1078,0.1073,0.1049,0.1038,0.1049,0.1008,0.1015,0.1012,0.1015,0.1013,0.1011,0.1014,0.105,0,0,0,0,0,0.1205,0.1187,0.1168,0.1145,0.1138,0.1124,0.1113,0.1107,0.1091,0.1084,0.1071,0.1054,0.1036,0.1024,0.1006,0.0979,0.0975,0.0968,0.0966,0.0965,0.0962,0.0948,0.0945,0.0977,0.0977,0.0977,0,0,0.1198,0.1183,0.1172,0.1145,0.1132,0.1114,0.1118,0.1098,0.1085,0.1081,0.1056,0.1046,0.1028,0.1002,0.099,0.0993,0.0953,0.0963,0.0962,0.096,0.0947,0.0944,0.0941,0.0976,0.0976,0.0977,0,0,0.1175,0.1163,0.1143,0.113,0.1111,0.1102,0.1098,0.1078,0.1071,0.1047,0.1044,0.1028,0.0996,0.0983,0.0972,0.0947,0.0945,0.0942,0.0932,0.0918,0.0916,0.0914,0.0905,0.0902,0.0939,0.0939,0.0939,0,0.1169,0.1141,0.1133,0.1113,0.1101,0.1098,0.1078,0.1066,0.1042,0.1034,0.1038,0.0999,0.0986,0.0958,0.0952,0.0943,0.0938,0.0944,0.0917,0.0915,0.0912,0.0904,0.0901,0.0939,0.0939,0.0939,0.0939,0,0.1134,0.1115,0.1101,0.1079,0.1066,0.1046,0.1035,0.1023,0.1019,0.101,0.0986,0.0971,0.095,0.0944,0.0939,0.0915,0.0917,0.0919,0.0925,0.0909,0.0901,0.0898,0.0939,0.0939,0.0939,0.0939,0,0,0.1109,0.1083,0.1078,0.1068,0.1048,0.1033,0.1014,0.0994,0.0984,0.0968,0.0952,0.0926,0.0928,0.0916,0.0911,0.0899,0.0881,0.0902,0.0902,0.0899,0.0853,0.0852,0.0848,0.088,0.0879,0.0879,0.0855,0,0.1084,0.1049,0.1042,0.1012,0.0995,0.0992,0.0976,0.0962,0.0953,0.0938,0.0929,0.0911,0.0914,0.0907,0.0896,0.0885,0.0871,0.0887,0.0865,0.0864,0.0869,0.0844,0.0842,0.082,0.0852,0.0851,0.0851,0,0.105,0.1034,0.1002,0.0985,0.0978,0.0963,0.0945,0.093,0.0914,0.0909,0.0897,0.0893,0.0874,0.0882,0.0855,0.0866,0.0857,0.0851,0.085,0.0847,0.0856,0.084,0.0813,0.081,0.0846,0.0846,0.0847,0,0.1035,0.1005,0.0983,0.0974,0.0954,0.0944,0.0935,0.092,0.0909,0.0893,0.0886,0.0869,0.0859,0.0846,0.0838,0.0844,0.0812,0.0819,0.0807,0.0808,0.08,0.08,0.0771,0.0795,0.0795,0.0795,0.0795,0,0.1007,0.0988,0.0976,0.0962,0.0941,0.0933,0.0913,0.0904,0.0891,0.0876,0.0873,0.0859,0.0849,0.0834,0.0828,0.0807,0.0803,0.0799,0.0797,0.0798,0.0799,0.0792,0.0793,0.0794,0.0794,0.0794,0.0794,0,0.0986,0.0977,0.0952,0.0936,0.0931,0.0916,0.0902,0.0889,0.0881,0.0862,0.0858,0.0846,0.0828,0.0819,0.0796,0.0792,0.0769,0.0769,0.0774,0.0774,0.0762,0.0763,0.0726,0.0721,0.0749,0.0749,0.0749,0,0.0969,0.0954,0.0936,0.0926,0.0917,0.09,0.089,0.0882,0.0871,0.0853,0.0842,0.0824,0.081,0.0781,0.0771,0.0754,0.0753,0.0741,0.075,0.0753,0.0753,0.0754,0.0753,0.0739,0.0739,0.0739,0.0739,0,0.094,0.0936,0.092,0.0904,0.0891,0.0877,0.0863,0.0855,0.0846,0.0834,0.0815,0.0804,0.0782,0.0764,0.0747,0.0738,0.0737,0.0736,0.0733,0.0734,0.0738,0.0736,0.077,0.0737,0.0737,0.0737,0.0737,0.0737,0.092,0.0907,0.0893,0.0876,0.0865,0.0853,0.084,0.0831,0.0816,0.0797,0.0794,0.0775,0.0762,0.0738,0.0729,0.0715,0.0717,0.0712,0.0711,0.0709,0.0709,0.0741,0.0712,0.0712,0.0712,0.0712,0.0712,0,0.089,0.0881,0.0866,0.0847,0.0834,0.0835,0.0821,0.081,0.0793,0.078,0.0766,0.0746,0.073,0.0718,0.0702,0.0692,0.0692,0.0688,0.0689,0.0687,0.0707,0.0712,0.0689,0.0689,0.0689,0.0689,0.0689,0.0689,0.0874,0.0852,0.0847,0.0821,0.0813,0.0794,0.0786,0.0775,0.0765,0.0743,0.0729,0.0722,0.071,0.0693,0.0678,0.0676,0.067,0.0666,0.0664,0.0683,0.0685,0.0687,0.0692,0.0665,0.0665,0.0644,0.0644,0.0644]},{"header":{"parameterUnit":"m.s-1","parameterCategory":1,"la1":30.2991,"la2":30.254,"lo1":-89.0895,"lo2":-89.0444,"dy":0.0017,"dx":0.0017,"nx":28,"ny":28,"refTime":"2023-11-21T09:00:00:Z","depth":0,"parameterNumber":3,"parameterNumberName":"V-component_of_WINDS"},"data":[0,0,0,0,0,0,0,0,0,0,0,0,0,0,0,0,0,0,0,0,0,0,0,0,0,0,0,0,0,0,0,0,0,0,0,0,0,0,0,0,0,0,0,0,0,0,0,0,0,0,0,0,0,0,0,0,0,0,-6.0108,-6.0109,0,-6.0237,-6.0238,-6.0239,-6.0164,-6.0161,-6.0157,-6.0153,-6.0281,-6.0288,-6.0295,0,0,0,0,0,0,0,0,0,0,0,0,0,-5.9792,-5.9798,-6.0107,-6.0109,-6.0111,-6.0236,-6.0238,-6.024,-6.0165,-6.016,-6.0156,-6.0152,-6.0279,-6.0287,-6.0295,0,0,0,0,0,0,0,0,0,0,0,0,0,-5.9925,-5.98,-6.0107,-6.0089,-6.0088,-6.0236,-6.0238,-6.024,-6.0166,-6.016,-6.0155,-6.015,-6.0276,-6.0286,-6.0296,-6.0469,0,0,-6.0328,-6.0332,0,0,0,0,0,0,0,0,-5.9918,-5.9937,-6.009,-6.009,-6.009,-6.0179,-6.0173,-6.0317,-6.0167,-6.0136,-6.0153,-6.0147,-6.0251,-6.0263,-6.0299,-6.0475,-6.048,-6.0328,-6.0335,-6.0339,-6.0342,0,0,0,0,0,0,0,-5.9909,-5.9931,-6.0158,-6.0092,-6.0092,-6.0072,-6.0085,-6.02,-6.0223,-6.0138,-6.0133,-6.015,-6.025,-6.029,-6.0302,-6.0482,-6.0328,-6.0337,-6.0344,-6.0348,-6.0803,-6.0809,0,0,0,0,0,0,-5.9901,-5.9924,-6.0154,-6.0162,-5.9989,-6.0082,-6.0097,-6.0156,-6.0221,-6.0226,-6.0154,-6.0146,-6.0275,-6.029,-6.0306,-6.0511,-6.0339,-6.0349,-6.0354,-6.0797,-6.0805,-6.0811,0,0,0,0,0,0,-5.9895,-5.9923,-6.0149,-6.0042,-6.0069,-6.0094,-6.016,-6.0161,-6.02,-6.0233,-6.0236,-6.0191,-6.0271,-6.0292,-6.0429,-6.0515,-6.0353,-6.0362,-6.079,-6.08,-6.0808,-6.0923,0,0,0,0,0,0,-5.9886,-5.9921,-5.9988,-6.0044,-6.0075,-6.0272,-6.0166,-6.0168,-6.0219,-6.0209,-6.0268,-6.0273,-6.0269,-6.0414,-6.0439,-6.0526,-6.037,-6.0783,-6.0794,-6.0805,-6.0912,-6.0935,-6.0955,0,0,0,0,0,-5.9875,-6.0014,-5.9992,-6.002,-6.0159,-6.0277,-6.0294,-6.0288,-6.0226,-6.0293,-6.0313,-6.0271,-6.0501,-6.0429,-6.0456,-6.0547,-6.0777,-6.0791,-6.0804,-6.0902,-6.0931,-6.0955,0,0,0,0,0,0,-5.9966,-6.0021,-5.9997,-6.0158,-6.0214,-6.0264,-6.0348,-6.0318,-6.0391,-6.0378,-6.0365,-6.0379,-6.0522,-6.0548,-6.0466,-6.0717,-6.0629,-6.0649,-6.0695,-6.0722,-6.0743,-6.0733,-6.0379,0,0,0,0,0,-6.0005,-6.0098,-6.014,-6.0278,-6.0308,-6.0323,-6.0374,-6.0364,-6.042,-6.0443,-6.0473,-6.0528,-6.0613,-6.0669,-6.0748,-6.0915,-6.0926,-6.0991,-6.1013,-6.103,-6.1047,-6.1137,-6.1166,-6.0855,-6.0855,-6.0855,0,0,-6.0087,-6.0128,-6.0187,-6.0298,-6.0339,-6.0434,-6.0343,-6.0447,-6.0516,-6.0458,-6.0589,-6.0614,-6.0674,-6.0827,-6.0896,-6.0853,-6.1136,-6.1048,-6.1061,-6.1069,-6.1154,-6.1183,-6.1209,-6.0865,-6.0863,-6.0862,0,0,-6.0283,-6.0324,-6.0444,-6.0488,-6.0552,-6.0561,-6.059,-6.0645,-6.066,-6.0792,-6.075,-6.0831,-6.0978,-6.1022,-6.1064,-6.1276,-6.124,-6.1302,-6.1415,-6.1502,-6.1526,-6.1548,-6.1623,-6.165,-6.1319,-6.132,-6.132,0,-6.0376,-6.0517,-6.0509,-6.0616,-6.0665,-6.0618,-6.0738,-6.0781,-6.0868,-6.0902,-6.0853,-6.1035,-6.1072,-6.1235,-6.1287,-6.1322,-6.1353,-6.1296,-6.1524,-6.1546,-6.1565,-6.1637,-6.1665,-6.1327,-6.1326,-6.1325,-6.1325,0,-6.0627,-6.0726,-6.0815,-6.0901,-6.0961,-6.1074,-6.1081,-6.1142,-6.1127,-6.1141,-6.1275,-6.1318,-6.1405,-6.1443,-6.1429,-6.1603,-6.1575,-6.1525,-6.1437,-6.1602,-6.1669,-6.1697,-6.1337,-6.1335,-6.1332,-6.1331,0,0,-6.0885,-6.0965,-6.0998,-6.1036,-6.1104,-6.1179,-6.1289,-6.1376,-6.1428,-6.1489,-6.158,-6.1705,-6.166,-6.1707,-6.1697,-6.1774,-6.1939,-6.1715,-6.1716,-6.1755,-6.2132,-6.2169,-6.2201,-6.1915,-6.192,-6.1924,-6.2127,0,-6.1085,-6.1279,-6.1275,-6.1455,-6.1545,-6.1501,-6.1597,-6.1648,-6.1664,-6.1742,-6.1758,-6.1847,-6.1781,-6.1809,-6.1883,-6.1903,-6.2014,-6.1889,-6.1998,-6.2002,-6.1985,-6.2236,-6.2275,-6.2464,-6.2153,-6.2158,-6.2161,0,-6.1345,-6.1416,-6.1605,-6.1659,-6.1697,-6.1783,-6.1862,-6.1937,-6.1993,-6.1999,-6.2053,-6.2031,-6.2141,-6.205,-6.2201,-6.2115,-6.216,-6.2176,-6.2183,-6.2193,-6.2092,-6.2252,-6.2525,-6.2553,-6.2202,-6.2199,-6.2196,0,-6.1513,-6.1656,-6.1787,-6.1822,-6.1888,-6.1949,-6.1979,-6.2031,-6.2083,-6.2151,-6.2184,-6.2264,-6.2307,-6.2369,-6.2368,-6.2302,-6.252,-6.243,-6.2527,-6.2528,-6.2575,-6.2572,-6.2858,-6.2605,-6.2604,-6.2604,-6.2603,0,-6.1736,-6.1854,-6.1864,-6.1945,-6.2075,-6.2067,-6.2195,-6.2219,-6.2265,-6.2348,-6.2315,-6.2394,-6.2389,-6.2468,-6.2468,-6.2592,-6.2612,-6.2619,-6.2617,-6.2622,-6.2621,-6.265,-6.2637,-6.2611,-6.261,-6.2608,-6.2607,0,-6.1946,-6.1958,-6.2098,-6.215,-6.2165,-6.2258,-6.2301,-6.2378,-6.239,-6.2497,-6.2521,-6.2541,-6.2632,-6.2638,-6.2743,-6.2743,-6.2894,-6.2878,-6.2876,-6.2873,-6.297,-6.296,-6.3285,-6.3326,-6.3046,-6.3049,-6.3051,0,-6.2088,-6.2177,-6.2239,-6.2293,-6.2327,-6.2415,-6.2468,-6.2464,-6.2521,-6.2591,-6.2659,-6.2747,-6.2818,-6.2966,-6.2989,-6.3069,-6.3054,-6.3163,-6.3066,-6.3068,-6.3055,-6.305,-6.3058,-6.3181,-6.3184,-6.3187,-6.3189,0,-6.2338,-6.234,-6.2419,-6.25,-6.2565,-6.2628,-6.2687,-6.2733,-6.2735,-6.2801,-6.2895,-6.295,-6.3058,-6.3146,-6.3224,-6.3253,-6.3222,-6.3219,-6.3246,-6.3251,-6.3246,-6.3249,-6.2926,-6.3212,-6.3209,-6.3208,-6.3207,-6.3206,-6.2518,-6.2595,-6.2651,-6.2739,-6.2783,-6.2839,-6.2913,-6.2936,-6.3015,-6.3103,-6.3095,-6.32,-6.3252,-6.3354,-6.3389,-6.3469,-6.3432,-6.3471,-6.3481,-6.3491,-6.3501,-6.3234,-6.3484,-6.3483,-6.3482,-6.3482,-6.3481,0,-6.2766,-6.28,-6.2882,-6.2966,-6.3035,-6.3001,-6.3064,-6.3124,-6.3217,-6.3269,-6.334,-6.3447,-6.3532,-6.3562,-6.3644,-6.3703,-6.369,-6.3724,-6.372,-6.3727,-6.3529,-6.3498,-6.3733,-6.3733,-6.3733,-6.3733,-6.3733,-6.3733,-6.2903,-6.3032,-6.304,-6.319,-6.3222,-6.3325,-6.3364,-6.3414,-6.3456,-6.3578,-6.3649,-6.3669,-6.3712,-6.3797,-6.3873,-6.3879,-6.391,-6.3951,-6.3951,-6.3766,-6.3741,-6.3716,-6.3687,-6.3958,-6.3958,-6.4142,-6.4143,-6.4145]}]]